Location: Newark
(41.6500°N, 71.4833°W)
Time: 02:36:28
(UTC+00:00)

Transit 2A Rocket - Pass Details

Date: 03 February 2020
Orbit: 591 x 912 km, 66.7° (Epoch: 25 February)

Event Time Altitude Azimuth Distance (km) Brightness Sun altitude
Rises 09:34:30 0° 268° (W) 2,822 - -26.8°
Reaches altitude 10° 09:38:36 10° 307° (NW) 1,939 - -26.0°
Maximum altitude 09:39:39 11° 322° (NW) 1,898 - -25.8°
Drops below altitude 10° 09:40:43 10° 336° (NNW) 1,958 - -25.6°
Exits shadow 09:42:49 - 359° (N) 2,326 7.5 -25.2°
Sets 09:44:58 0° 15° (NNE) 2,921 8.2 -24.8°
